This is the latest recevied weather packets stored in our database for station/object EA7RX-4. If no packets are shown the sender has not sent any weather packets the latest 10 day(s).
| Time | Temp. | Humidity | Pressure | Rain* | Wind** | Luminosity | Snow |
|---|---|---|---|---|---|---|---|
| 1788038403 | 24.44° C | 23% | 1019 hPa | 0 mm | - | 0 W/m² | - |
| 1788037803 | 24.44° C | 24% | 1018.9 hPa | 0 mm | - | 0 W/m² | - |
| 1788037203 | 24.44° C | 24% | 1018.9 hPa | 0 mm | - | 0 W/m² | - |
| 1788036603 | 24.44° C | 24% | 1019 hPa | 0 mm | - | 0 W/m² | - |
| 1788036003 | 24.44° C | 25% | 1019 hPa | 0 mm | - | 0 W/m² | - |
| 1788035403 | 23.89° C | 26% | 1019 hPa | 0 mm | - | 0 W/m² | - |
| 1788034803 | 23.89° C | 26% | 1018.9 hPa | 0 mm | - | 0 W/m² | - |
| 1788034203 | 24.44° C | 26% | 1019 hPa | 0 mm | - | 0 W/m² | - |
| 1788033603 | 24.44° C | 26% | 1018.8 hPa | 0 mm | - | 0 W/m² | - |
| 1788033003 | 24.44° C | 27% | 1018.5 hPa | 0 mm | - | 0 W/m² | - |
| 1788032403 | 24.44° C | 27% | 1018.5 hPa | 0 mm | - | 0 W/m² | - |
| 1788031803 | 25° C | 27% | 1018.5 hPa | 0 mm | - | 0 W/m² | - |
| 1788031203 | 25° C | 27% | 1018.3 hPa | 0 mm | - | 0 W/m² | - |
| 1788030603 | 25° C | 27% | 1018 hPa | 0 mm | - | 0 W/m² | - |
| 1788030003 | 25° C | 26% | 1018.2 hPa | 0 mm | - | 1 W/m² | - |
| 1788029403 | 25.56° C | 26% | 1018.2 hPa | 0 mm | - | 4 W/m² | - |
| 1788028803 | 26.11° C | 26% | 1017.8 hPa | 0 mm | - | 11 W/m² | - |
| 1788028203 | 26.11° C | 25% | 1018.2 hPa | 0 mm | - | 18 W/m² | - |
| 1788027603 | 26.67° C | 25% | 1018.2 hPa | 0 mm | - | 26 W/m² | - |
| 1788027003 | 26.67° C | 25% | 1018.2 hPa | 0 mm | - | 34 W/m² | - |
| 1788025803 | 27.22° C | 25% | 1018 hPa | 0 mm | - | 65 W/m² | - |
| 1788025203 | 27.22° C | 25% | 1018.1 hPa | 0 mm | - | 88 W/m² | - |
| 1788024603 | 27.22° C | 24% | 1018.1 hPa | 0 mm | - | 109 W/m² | - |
| 1788024003 | 27.22° C | 24% | 1018 hPa | 0 mm | - | 138 W/m² | - |
| 1788023403 | 27.22° C | 24% | 1017.9 hPa | 0 mm | - | 170 W/m² | - |
* Rain latest hour (hover to see other rain measurements)
** Current wind speed in m/s (hover to see current wind gust speed)